sat.trackr.live / text

‹ back to catalog

STARLINK-11569 [DTC]

NORAD 62910 · 2025-027D

PAYLOAD ACTIVE UNKNOWN

§ Identity

Operator
Country
US
Launch date
2025-02-08
Launch site
AFETR
Launch vehicle
Mass (kg)
RCS (m²)

Purposes: comms

External: N2YO · Heavens-Above · Gunter

§ Orbital elements

Epoch: 2026-09-21T08:04:55.174080Z

Period
91.67 min
Inclination
43.0000°
Eccentricity
0.0002141
Mean motion
15.70889180 rev/d
Perigee alt
354.9 km
Apogee alt
357.8 km
Semi-major
6,734.5 km
B*
1.3163e-3
RAAN
248.2519°
Arg perigee
260.5265°
Mean anomaly
99.5361°
Rev number
9,392

§ Raw data

STARLINK-11569 [DTC]1 62910U 25027D   26264.33674970  .00172360  00000+0  13163-2 0  99972 62910  43.0000 248.2519 0002141 260.5265  99.5361 15.70889180 93925

JSON: /api/v1/satellites/62910 · /tle

For live sub-satellite position, see the globe view (requires WebGL).

§ Visibility from observer

Set your observer location to see the next 7 days of passes ≥ 10°. The values pass through the URL so the page stays shareable.

No JS? Fill the form by hand. The geolocation button needs JavaScript.